[TLELIST] Archives

 

[list_settings.list_name] Current TLEs

September 14th 2010 PST

HST 1 20580U 90037B 10256.74671334 .00000481 00000-0 23962-4 0 6449 2 20580 028.4704 021.6924 0003258 065.3180 294.7752 15.01033638918078 ISS (ZARYA) 1 25544U 98067A 10257.52773803 .00011976 00000-0 94921-4 0 8903 2 25544 051.6464 133.4868 0008400 011.0929 068.6233 15.71764622677521 CXO 1 25867U 99040B 10256.33333333 -.00000331 00000-0 10000-3 0 5132 2 25867 067.6038 048.9187 8295478 275.3948 359.8758 00.37808259 6720 ____________________________________________________________________ These 2-Line ...Continue Reading

[list_settings.list_name] Current TLEs

September 13th 2010 PST

HST 1 20580U 90037B 10253.82115187 .00000536 00000-0 28208-4 0 6432 2 20580 028.4704 040.7952 0003195 033.3835 326.6985 15.01032092917630 ISS (ZARYA) 1 25544U 98067A 10256.25933030 .00008953 00000-0 72274-4 0 8843 2 25544 051.6454 139.9807 0008406 007.7394 090.1216 15.71729059677322 CXO 1 25867U 99040B 10256.33333333 -.00000331 00000-0 10000-3 0 5132 2 25867 067.6038 048.9187 8295478 275.3948 359.8758 00.37808259 6720 ____________________________________________________________________ These 2-Line ...Continue Reading

[list_settings.list_name] Current TLEs

September 12th 2010 PST

HST 1 20580U 90037B 10253.82115187 .00000536 00000-0 28208-4 0 6432 2 20580 028.4704 040.7952 0003195 033.3835 326.6985 15.01032092917630 ISS (ZARYA) 1 25544U 98067A 10255.18548769 .00016431 00000-0 12868-3 0 8780 2 25544 051.6475 145.4733 0008213 003.8418 133.9494 15.71718637677150 CXO 1 25867U 99040B 10253.70833333 -.00000187 00000-0 10000-3 0 5123 2 25867 067.5864 049.0324 8287427 275.4054 002.5458 00.37804873 6711 ____________________________________________________________________ These 2-Line ...Continue Reading

[list_settings.list_name] Current TLEs

September 11th 2010 PST

HST 1 20580U 90037B 10253.82115187 .00000536 00000-0 28208-4 0 6432 2 20580 028.4704 040.7952 0003195 033.3835 326.6985 15.01032092917630 ISS (ZARYA) 1 25544U 98067A 10254.28825352 .00018395 00000-0 14361-3 0 8732 2 25544 051.6475 150.0637 0008095 358.9499 098.7803 15.71696275677016 CXO 1 25867U 99040B 10253.70833333 -.00000187 00000-0 10000-3 0 5123 2 25867 067.5864 049.0324 8287427 275.4054 002.5458 00.37804873 6711 ____________________________________________________________________ These 2-Line ...Continue Reading

[list_settings.list_name] Current TLEs

September 10th 2010 PST

HST 1 20580U 90037B 10252.55784020 .00000489 00000-0 24592-4 0 6427 2 20580 028.4703 049.0415 0003200 019.6493 340.4283 15.01030867917441 ISS (ZARYA) 1 25544U 98067A 10253.33534882 .00019030 00000-0 14859-3 0 8674 2 25544 051.6470 154.9391 0008236 356.6141 105.9245 15.71663300676863 CXO 1 25867U 99040B 10253.70833333 -.00000187 00000-0 10000-3 0 5123 2 25867 067.5864 049.0324 8287427 275.4054 002.5458 00.37804873 6711 ____________________________________________________________________ These 2-Line ...Continue Reading

[list_settings.list_name] Current TLEs

September 9th 2010 PST

HST 1 20580U 90037B 10249.89823164 .00000445 00000-0 21187-4 0 6411 2 20580 028.4708 066.4020 0003204 351.3516 008.7055 15.01028917917047 ISS (ZARYA) 1 25544U 98067A 10252.31703862 .00016757 00000-0 13171-3 0 8610 2 25544 051.6471 160.1488 0008048 354.1406 102.9922 15.71615318676706 CXO 1 25867U 99040B 10251.04166667 -.00000042 00000-0 10000-3 0 5116 2 25867 067.5638 049.1359 8282510 275.4325 359.4365 00.37806873 6700 ____________________________________________________________________ These 2-Line ...Continue Reading

[list_settings.list_name] Current TLEs

September 8th 2010 PST

HST 1 20580U 90037B 10249.89823164 .00000445 00000-0 21187-4 0 6411 2 20580 028.4708 066.4020 0003204 351.3516 008.7055 15.01028917917047 ISS (ZARYA) 1 25544U 98067A 10251.36402938 .00014302 00000-0 11333-3 0 8559 2 25544 051.6464 165.0237 0008076 349.7114 111.8784 15.71572890676556 CXO 1 25867U 99040B 10251.04166667 -.00000042 00000-0 10000-3 0 5116 2 25867 067.5638 049.1359 8282510 275.4325 359.4365 00.37806873 6700 ____________________________________________________________________ These 2-Line ...Continue Reading

[list_settings.list_name] Current TLEs

September 7th 2010 PST

HST 1 20580U 90037B 10249.89823164 .00000445 00000-0 21187-4 0 6411 2 20580 028.4708 066.4020 0003204 351.3516 008.7055 15.01028917917047 ISS (ZARYA) 1 25544U 98067A 10250.41129753 .00011983 00000-0 95892-4 0 8493 2 25544 051.6464 169.8985 0008090 345.9816 121.7756 15.71536010676408 CXO 1 25867U 99040B 10251.04166667 -.00000042 00000-0 10000-3 0 5116 2 25867 067.5638 049.1359 8282510 275.4325 359.4365 00.37806873 6700 ____________________________________________________________________ These 2-Line ...Continue Reading

[list_settings.list_name] Current TLEs

September 6th 2010 PST

HST 1 20580U 90037B 10248.90087775 .00000417 00000-0 19091-4 0 6401 2 20580 028.4710 072.9131 0003245 340.8031 019.2459 15.01028131916890 ISS (ZARYA) 1 25544U 98067A 10249.49716435 .00011005 00000-0 88558-4 0 8427 2 25544 051.6460 174.5744 0008129 342.5330 350.0366 15.71508975676253 CXO 1 25867U 99040B 10248.41666667 -.00000096 00000-0 10000-3 0 5106 2 25867 067.5411 049.3568 8279016 275.4019 002.0227 00.37807398 6699 ____________________________________________________________________ These 2-Line ...Continue Reading

[list_settings.list_name] Current TLEs

September 5th 2010 PST

HST 1 20580U 90037B 10247.17212892 .00000422 00000-0 19424-4 0 6393 2 20580 028.4726 084.1981 0003252 322.8891 037.1433 15.01027392916638 ISS (ZARYA) 1 25544U 98067A 10248.37430675 .00009959 00000-0 80694-4 0 8352 2 25544 051.6457 180.3186 0008004 337.4982 118.3549 15.71479286676083 CXO 1 25867U 99040B 10248.41666667 -.00000096 00000-0 10000-3 0 5106 2 25867 067.5411 049.3568 8279016 275.4019 002.0227 00.37807398 6699 ____________________________________________________________________ These 2-Line ...Continue Reading
  • This mailing list is a public mailing list - anyone may join or leave, at any time.
  • This mailing list is announce-only.

International Space Station (ISS) / Hubble Space Telescope (HST) / Chandra X-Ray Observatory Orbital Data via EMAIL

Privacy Policy:

Private list